Terminal Aerodrome Forecast
Issued by NWS Milwaukee/Sullivan, WI

Home | Current Version | Previous Version | Text Only | Print | Product List | Glossary On
Versions: 1 2 3 4 5 6 7 8 9 10 11 12 13 14 15 16 17 18 19 20 21 22 23 24 25 26 27 28 29 30 31 32 33 34 35 36 37 38 39 40 41 42 43 44 45 46 47 48 49 50
000
FTUS43 KMKX 271725
TAFMSN
TAF
KMSN 271725Z 2718/2818 30012G22KT P6SM BKN040
      TEMPO 2720/2723 -SHRA BKN035
     FM272300 30009KT P6SM -SHRA BKN025 OVC035
     FM280200 30005KT P6SM -SHRA OVC015
      TEMPO 2802/2806 5SM -SHRA BR OVC008
     FM280600 32005KT 5SM BR VCSH OVC008
     FM281300 34006KT P6SM OVC010
     FM281700 01013KT P6SM BKN025=

USA.gov is the U.S. government's official web portal to all federal, state and local government web resources and services.